Regional Weather Roundup
Issued by NWS Goodland, KS

Home | Current Version | Previous Version | Graphics & Text | Print | Product List | Glossary On
Versions: 1 2 3 4 5 6 7 8 9 10 11 12 13 14 15 16 17 18 19 20 21 22 23 24 25 26 27 28 29 30 31 32 33 34 35 36 37 38 39 40 41 42 43 44 45 46 47 48 49 50
000
ASUS43 KGLD 012159
RWRGLD

GOODLAND FORECAST AREA HOURLY WEATHER ROUNDUP
NATIONAL WEATHER SERVICE GOODLAND KS
400 PM MDT WED OCT 01 2014

...OFFICIAL OBSERVATIONS...

CITY           SKY/WX    TMP DP  RH WIND       PRES   REMARKS
GOODLAND KS    MOSUNNY   76  40  27 VRB5      29.79F
HILL CITY KS   SUNNY     81  50  33 CALM      29.73S
IMPERIAL NEB   MOSUNNY   73  41  31 E3        29.78S
MCCOOK NEB     SUNNY     77  43  29 VRB3      29.75S
AKRON CO       MOSUNNY   67  41  38 VRB7      29.82F
BURLINGTON CO  MOSUNNY   72  36  26 SE7       29.81F
LIMON CO       CLOUDY    68  34  28 S14G24    29.82F
$$

...UNOFFICIAL OBSERVATIONS...

CITY           SKY/WX    TMP DP  RH WIND       PRES   REMARKS
COLBY KS       SUNNY     75  46  35 SE7       29.78S
GOVE KS          N/A     79  32  18 MISG        N/A
NORTON KS      SUNNY     79  37  22 CALM      29.72S
SHARON SPRINGS   N/A     78  43  28 CALM        N/A
TRENTON NEB      N/A     74  32  21 CALM        N/A
KIT CARSON CO    N/A     73  41  32 MISG        N/A
YUMA CO          N/A     70  41  34 CALM        N/A
$$



USA.gov is the U.S. government's official web portal to all federal, state and local government web resources and services.